| time (UTC) | temp F | wind direction | speed MPH | gust MPH | rain 1hr in | rain 24hr in | rain mn in | humidity % | barometer mb |
| 20260505024503 | 61 | 123 | 1.0 | 4.0 | 0.00 | 0.00 | 0.00 | 58 | 1011.3 |
| 20260505023603 | 60 | 126 | 0.0 | 3.0 | 0.00 | 0.00 | 0.00 | 60 | 1011.4 |
| 20260505022703 | 60 | 236 | 0.0 | 3.0 | 0.00 | 0.00 | 0.00 | 61 | 1011.6 |
| 20260505021803 | 60 | 71 | 0.0 | 1.0 | 0.00 | 0.00 | 0.00 | 59 | 1011.6 |
| 20260505020903 | 61 | 114 | 0.0 | 2.0 | 0.00 | 0.00 | 0.00 | 58 | 1011.5 |
| 20260505020003 | 61 | 0 | 0.0 | 0.0 | 0.00 | 0.00 | 0.00 | 56 | 1011.5 |
| 20260505015403 | 62 | 104 | 0.0 | 2.0 | 0.00 | 0.00 | 0.00 | 57 | 1011.5 |
| 20260505014503 | 62 | 111 | 0.0 | 1.0 | 0.00 | 0.00 | 0.00 | 56 | 1011.4 |
| 20260505013603 | 62 | 59 | 0.0 | 1.0 | 0.00 | 0.00 | 0.00 | 57 | 1011.4 |
| 20260505012703 | 62 | 50 | 0.0 | 2.0 | 0.00 | 0.00 | 0.00 | 55 | 1011.4 |
| 20260505011803 | 63 | 66 | 0.0 | 2.0 | 0.00 | 0.00 | 0.00 | 54 | 1011.4 |
| 20260505010903 | 64 | 137 | 0.0 | 2.0 | 0.00 | 0.00 | 0.00 | 52 | 1011.2 |
| 20260505010003 | 64 | 137 | 0.0 | 3.0 | 0.00 | 0.00 | 0.00 | 52 | 1011.1 |
| 20260505005403 | 64 | 165 | 0.0 | 2.0 | 0.00 | 0.00 | 0.00 | 50 | 1011.0 |
| 20260505004503 | 64 | 108 | 0.0 | 3.0 | 0.00 | 0.00 | 0.00 | 50 | 1011.1 |
| 20260505003816 | 64 | 103 | 0.0 | 3.0 | 0.00 | 0.00 | 0.00 | 50 | 1010.9 |
| 20260505002703 | 65 | 62 | 0.0 | 2.0 | 0.00 | 0.00 | 0.00 | 47 | 1010.8 |
| 20260505001803 | 65 | 122 | 0.0 | 1.0 | 0.00 | 0.00 | 0.00 | 46 | 1010.6 |
| 20260505001118 | 66 | 125 | 0.0 | 2.0 | 0.00 | 0.00 | 0.00 | 45 | 1010.7 |
| 20260505000003 | 67 | 209 | 0.0 | 1.0 | 0.00 | 0.00 | 0.00 | 44 | 1010.5 |
| 20260504235617 | 67 | 137 | 0.0 | 3.0 | 0.00 | 0.00 | 0.00 | 44 | 1010.5 |
| 20260504234503 | 68 | 105 | 1.0 | 4.0 | 0.00 | 0.00 | 0.00 | 43 | 1010.4 |
| 20260504233603 | 68 | 170 | 1.0 | 4.0 | 0.00 | 0.00 | 0.00 | 44 | 1010.4 |
| 20260504232703 | 68 | 82 | 0.0 | 2.0 | 0.00 | 0.00 | 0.00 | 42 | 1010.4 |
| 20260504231803 | 69 | 103 | 1.0 | 6.0 | 0.00 | 0.00 | 0.00 | 42 | 1010.4 |
| 20260504230903 | 70 | 119 | 2.0 | 6.0 | 0.00 | 0.00 | 0.00 | 39 | 1010.4 |
| 20260504230003 | 69 | 112 | 1.0 | 5.0 | 0.00 | 0.00 | 0.00 | 40 | 1010.4 |
| 20260504225403 | 70 | 93 | 1.0 | 3.0 | 0.00 | 0.00 | 0.00 | 43 | 1010.4 |
| 20260504224503 | 70 | 92 | 1.0 | 6.0 | 0.00 | 0.00 | 0.00 | 40 | 1010.4 |
| 20260504223603 | 70 | 131 | 1.0 | 6.0 | 0.00 | 0.00 | 0.00 | 38 | 1010.4 |
| 20260504222919 | 70 | 123 | 1.0 | 5.0 | 0.00 | 0.00 | 0.00 | 39 | 1010.5 |
| 20260504221803 | 70 | 108 | 2.0 | 5.0 | 0.00 | 0.00 | 0.00 | 38 | 1010.5 |
| 20260504220903 | 71 | 126 | 2.0 | 6.0 | 0.00 | 0.00 | 0.00 | 37 | 1010.5 |
| 20260504220003 | 71 | 135 | 2.0 | 7.0 | 0.00 | 0.00 | 0.00 | 37 | 1010.5 |
| 20260504215616 | 71 | 123 | 2.0 | 6.0 | 0.00 | 0.00 | 0.00 | 37 | 1010.6 |
| 20260504214503 | 71 | 124 | 2.0 | 8.0 | 0.00 | 0.00 | 0.00 | 36 | 1010.6 |
| 20260504213819 | 71 | 118 | 2.0 | 8.0 | 0.00 | 0.00 | 0.00 | 37 | 1010.6 |
| 20260504212703 | 71 | 99 | 2.0 | 7.0 | 0.00 | 0.00 | 0.00 | 36 | 1010.7 |
| 20260504211803 | 71 | 129 | 3.0 | 10.0 | 0.00 | 0.00 | 0.00 | 36 | 1010.6 |
| 20260504210903 | 71 | 129 | 3.0 | 8.0 | 0.00 | 0.00 | 0.00 | 35 | 1010.6 |
| 20260504210003 | 71 | 89 | 2.0 | 7.0 | 0.00 | 0.00 | 0.00 | 36 | 1010.6 |
| 20260504205403 | 71 | 142 | 2.0 | 7.0 | 0.00 | 0.00 | 0.00 | 36 | 1010.6 |
| 20260504204503 | 72 | 123 | 2.0 | 8.0 | 0.00 | 0.00 | 0.00 | 35 | 1010.6 |
| 20260504203603 | 72 | 104 | 2.0 | 6.0 | 0.00 | 0.00 | 0.00 | 36 | 1010.7 |
| 20260504202703 | 72 | 82 | 2.0 | 8.0 | 0.00 | 0.00 | 0.00 | 35 | 1010.8 |
| 20260504201803 | 72 | 132 | 3.0 | 9.0 | 0.00 | 0.00 | 0.00 | 36 | 1010.9 |
| 20260504200903 | 72 | 106 | 3.0 | 8.0 | 0.00 | 0.00 | 0.00 | 38 | 1011.0 |
| 20260504200003 | 72 | 129 | 3.0 | 10.0 | 0.00 | 0.00 | 0.00 | 35 | 1011.0 |
| 20260504195403 | 73 | 110 | 3.0 | 9.0 | 0.00 | 0.00 | 0.00 | 35 | 1011.1 |
| 20260504194503 | 73 | 50 | 2.0 | 9.0 | 0.00 | 0.00 | 0.00 | 35 | 1011.2 |
| 20260504193603 | 74 | 73 | 2.0 | 6.0 | 0.00 | 0.00 | 0.00 | 34 | 1011.1 |
| 20260504192703 | 74 | 106 | 2.0 | 7.0 | 0.00 | 0.00 | 0.00 | 34 | 1011.3 |
| 20260504192017 | 73 | 121 | 3.0 | 8.0 | 0.00 | 0.00 | 0.00 | 37 | 1011.5 |
| 20260504190903 | 73 | 129 | 2.0 | 10.0 | 0.00 | 0.00 | 0.00 | 33 | 1011.6 |
| 20260504190003 | 73 | 147 | 3.0 | 12.0 | 0.00 | 0.00 | 0.00 | 35 | 1011.5 |
| 20260504185403 | 73 | 133 | 3.0 | 12.0 | 0.00 | 0.00 | 0.00 | 32 | 1011.6 |
| 20260504184503 | 72 | 126 | 4.0 | 11.0 | 0.00 | 0.00 | 0.00 | 34 | 1011.7 |
| 20260504183818 | 72 | 89 | 4.0 | 11.0 | 0.00 | 0.00 | 0.00 | 35 | 1011.7 |
| 20260504182917 | 72 | 57 | 2.0 | 11.0 | 0.00 | 0.00 | 0.00 | 37 | 1012.0 |
| 20260504182017 | 73 | 64 | 2.0 | 11.0 | 0.00 | 0.00 | 0.00 | 32 | 1012.0 |
| 20260504181116 | 73 | 118 | 2.0 | 6.0 | 0.00 | 0.00 | 0.00 | 33 | 1012.2 |
| 20260504180003 | 73 | 121 | 2.0 | 8.0 | 0.00 | 0.00 | 0.00 | 34 | 1012.3 |
| 20260504175403 | 72 | 84 | 3.0 | 9.0 | 0.00 | 0.00 | 0.00 | 35 | 1012.3 |
| 20260504174503 | 72 | 110 | 2.0 | 9.0 | 0.00 | 0.00 | 0.00 | 35 | 1012.4 |
| 20260504173603 | 72 | 86 | 2.0 | 7.0 | 0.00 | 0.00 | 0.00 | 37 | 1012.6 |
| 20260504172703 | 72 | 124 | 2.0 | 8.0 | 0.00 | 0.00 | 0.00 | 38 | 1012.8 |
| 20260504172016 | 71 | 121 | 3.0 | 8.0 | 0.00 | 0.00 | 0.00 | 38 | 1012.7 |
| 20260504170903 | 71 | 142 | 3.0 | 11.0 | 0.00 | 0.00 | 0.00 | 34 | 1012.8 |
| 20260504151119 | 67 | 0 | 0.0 | 0.0 | 0.00 | 0.00 | 0.00 | 40 | 1014.2 |
| 20260504140903 | 64 | 0 | 0.0 | 0.0 | 0.00 | 0.00 | 0.00 | 50 | 1014.4 |
| 20260504100216 | 43 | 332 | 0.0 | 0.0 | 0.00 | 0.00 | 0.00 | 84 | 1015.7 |
| 20260504081803 | 46 | 37 | 0.0 | 1.0 | 0.00 | 0.00 | 0.00 | 75 | 1015.5 |
| 20260504080903 | 46 | 0 | 0.0 | 0.0 | 0.00 | 0.00 | 0.00 | 75 | 1015.5 |
| 20260504050003 | 45 | 0 | 0.0 | 0.0 | 0.00 | 0.00 | 0.00 | 65 | 1015.4 |
| 20260504045403 | 46 | 8 | 0.0 | 0.0 | 0.00 | 0.00 | 0.00 | 67 | 1015.4 |
| 20260504044503 | 46 | 8 | 0.0 | 1.0 | 0.00 | 0.00 | 0.00 | 64 | 1015.2 |
| 20260504043603 | 46 | 0 | 0.0 | 0.0 | 0.00 | 0.00 | 0.00 | 64 | 1015.1 |
| 20260504042703 | 45 | 0 | 0.0 | 0.0 | 0.00 | 0.00 | 0.00 | 65 | 1015.0 |
| 20260504041803 | 45 | 0 | 0.0 | 0.0 | 0.00 | 0.00 | 0.00 | 68 | 1014.9 |
| 20260504040903 | 46 | 0 | 0.0 | 0.0 | 0.00 | 0.00 | 0.00 | 66 | 1014.8 |
| 20260504040003 | 46 | 8 | 0.0 | 1.0 | 0.00 | 0.00 | 0.00 | 65 | 1014.7 |
| 20260504035403 | 46 | 8 | 0.0 | 1.0 | 0.00 | 0.00 | 0.00 | 64 | 1014.7 |
| 20260504034503 | 46 | 0 | 0.0 | 0.0 | 0.00 | 0.00 | 0.00 | 65 | 1014.7 |
| 20260504033603 | 46 | 0 | 0.0 | 0.0 | 0.00 | 0.00 | 0.00 | 67 | 1014.7 |
| 20260504032703 | 46 | 0 | 0.0 | 0.0 | 0.00 | 0.00 | 0.00 | 66 | 1014.6 |
| 20260504031803 | 46 | 0 | 0.0 | 0.0 | 0.00 | 0.00 | 0.00 | 66 | 1014.6 |
| 20260504030903 | 46 | 0 | 0.0 | 0.0 | 0.00 | 0.00 | 0.00 | 65 | 1014.6 |
| 20260504030003 | 46 | 0 | 0.0 | 0.0 | 0.00 | 0.00 | 0.00 | 65 | 1014.5 |
| 20260504025403 | 47 | 0 | 0.0 | 0.0 | 0.00 | 0.00 | 0.00 | 62 | 1014.6 |